This is the latest recevied weather packets stored in our database for station/object OM6ACB-6. If no packets are shown the sender has not sent any weather packets the latest 10 day(s).
| Time | Temp. | Humidity | Pressure | Rain* | Wind** | Luminosity | Snow |
|---|---|---|---|---|---|---|---|
| 1777807407 | 24.44° C | 20% | 1024.1 hPa | 0 mm | - | - | - |
| 1777806807 | 23.33° C | 21% | 1024 hPa | 0 mm | - | - | - |
| 1777806206 | 23.33° C | 21% | 1024.1 hPa | 0 mm | - | - | - |
| 1777805606 | 23.33° C | 21% | 1024.2 hPa | 0 mm | - | - | - |
| 1777805006 | 23.89° C | 21% | 1024.3 hPa | 0 mm | - | - | - |
| 1777804406 | 22.22° C | 21% | 1024.1 hPa | 0 mm | - | - | - |
| 1777803805 | 22.22° C | 21% | 1024.3 hPa | 0 mm | - | - | - |
| 1777803205 | 22.78° C | 21% | 955.6 hPa | 0 mm | - | - | - |
| 1777802605 | 21.67° C | 22% | 1024.4 hPa | 0 mm | - | - | - |
| 1777802004 | 21.67° C | 22% | 1024.4 hPa | 0 mm | - | - | - |
| 1777801404 | 23.33° C | 21% | 1024.8 hPa | 0 mm | - | - | - |
| 1777800804 | 22.22° C | 22% | 1024.7 hPa | 0 mm | - | - | - |
| 1777800204 | 21.67° C | 22% | 1024.7 hPa | 0 mm | - | - | - |
| 1777799603 | 20.56° C | 22% | 1024.7 hPa | 0 mm | - | - | - |
| 1777799003 | 21.11° C | 22% | 1024.9 hPa | 0 mm | - | - | - |
| 1777798403 | 20° C | 22% | 1024.8 hPa | 0 mm | - | - | - |
| 1777797802 | 20.56° C | 22% | 1025 hPa | 0 mm | - | - | - |
| 1777797202 | 21.11° C | 22% | 1025 hPa | 0 mm | - | - | - |
| 1777796602 | 19.44° C | 23% | 1024.9 hPa | 0 mm | - | - | - |
| 1777796002 | 19.44° C | 23% | 1024.9 hPa | 0 mm | - | - | - |
| 1777795401 | 20° C | 23% | 1025.1 hPa | 0 mm | - | - | - |
| 1777794801 | 19.44° C | 23% | 1024.7 hPa | 0 mm | - | - | - |
| 1777794201 | 19.44° C | 23% | 1025 hPa | 0 mm | - | - | - |
| 1777793600 | 18.33° C | 23% | 1024.8 hPa | 0 mm | - | - | - |
| 1777793000 | 17.22° C | 24% | 1024.6 hPa | 0 mm | - | - | - |
* Rain latest hour (hover to see other rain measurements)
** Current wind speed in m/s (hover to see current wind gust speed)